Lid_Strength_Index
-1 -2 -1 -1 -1 -1 -1 -1 -1 -1 -1 -1 -1 -1 -1 -1 -1 0 3 2 -0 -4 -3 1 1 1 1 3 3 3 8 9 8 8 7 5 6 5 5 6 6 5 4 3 1
-1 -1 -1 -1 -0 -1 -1 -1 -1 -1 -1 -1 -1 -1 -1 -1 1 3 -1 -3 -3 -4 1 2 4 3 3 4 4 5 8 8 5 5 6 6 5 5 6 6 6 5 4 2 1
0 -0 -0 0 0 0 -0 -1 -1 -1 -1 -1 -1 -1 -1 -1 3 3 -3 -5 -4 -2 1 2 2 3 4 4 5 5 8 6 5 5 5 5 5 4 5 6 4 5 4 3 2
1 1 1 1 1 1 0 0 -1 -1 -1 -1 -1 -1 -1 0 8 3 -4 -4 -3 1 2 3 4 5 5 6 4 7 5 5 5 5 5 6 4 5 5 5 3 3 3 3 3
1 1 2 1 2 2 1 0 0 -1 -1 -1 -1 -1 1 5 5 2 -3 -1 1 2 3 4 5 5 6 6 6 7 6 5 4 5 5 4 5 5 5 3 3 3 4 3 3
2 2 2 3 3 3 2 1 1 -0 -1 -1 -1 -0 2 8 4 2 2 3 2 3 4 4 4 4 6 6 7 6 6 6 5 5 5 5 5 5 4 3 3 3 4 3 3
3 3 3 3 3 3 3 2 1 0 -0 -0 -1 0 5 6 3 2 3 3 2 3 4 4 4 5 5 6 5 6 8 7 7 6 6 6 8 7 4 4 4 4 4 4 2
4 3 4 4 4 3 3 2 2 1 -0 -0 -0 2 6 4 2 3 3 3 2 3 3 3 3 4 6 5 7 8 7 9 8 8 7 7 10 6 5 5 6 5 5 4 3
4 4 5 4 4 3 3 2 1 1 1 0 2 4 7 3 4 4 3 4 4 3 3 3 4 5 6 8 9 8 10 9 8 7 7 8 9 6 5 6 6 6 6 5 5
4 4 4 4 4 3 2 1 1 2 2 2 3 6 5 7 5 4 3 4 5 5 5 5 6 7 7 8 11 10 10 9 9 7 8 8 9 7 6 6 6 6 6 6 6
3 3 3 3 3 3 2 1 4 5 4 6 6 7 7 4 4 5 4 5 5 6 8 7 9 9 8 8 8 9 9 9 8 7 9 9 9 8 7 6 6 6 6 6 5
3 3 3 4 4 3 1 3 4 4 7 5 6 6 5 5 7 6 4 7 7 9 8 9 10 8 8 8 9 9 10 10 8 8 9 9 10 8 9 8 7 6 6 6 5
4 3 4 4 4 3 2 4 2 2 6 7 6 6 6 5 8 7 6 7 8 9 9 10 9 8 9 9 10 9 10 10 11 9 8 9 9 8 7 7 7 7 7 6 5
3 4 4 4 5 5 3 2 1 2 9 9 7 6 6 6 8 6 6 7 9 10 10 10 9 10 10 10 10 11 9 10 10 10 12 9 12 8 7 7 7 6 6 6 6
4 4 4 5 6 6 4 3 1 3 13 8 7 5 6 7 8 7 6 7 9 9 10 10 10 11 11 10 9 10 9 10 10 11 11 10 12 9 8 9 8 7 6 6 5
4 4 5 5 5 4 3 2 3 9 13 10 8 8 8 8 8 7 7 6 7 9 8 9 8 9 9 9 10 9 10 9 9 10 13 11 11 11 10 9 8 7 6 6 6
4 4 5 4 6 4 3 4 10 13 10 11 10 9 9 9 9 8 9 9 10 11 11 10 10 9 9 10 9 10 11 13 13 13 13 11 11 10 9 8 8 7 7 6 5
4 5 4 4 4 3 3 8 14 12 11 9 9 9 10 9 9 9 9 10 9 10 11 12 13 11 9 10 10 10 11 13 16 14 13 11 13 10 8 7 7 6 6 6 6
5 5 5 5 3 2 5 12 12 11 9 10 10 11 10 10 10 9 9 10 9 9 11 12 12 10 10 9 10 11 12 10 13 12 14 11 11 9 8 8 7 7 6 6 6
7 7 7 4 2 4 8 11 11 9 8 9 11 11 12 11 10 10 10 9 10 9 9 10 13 11 10 9 9 10 9 12 12 15 16 13 12 10 9 8 7 7 7 6 6
7 9 7 4 3 7 11 10 9 7 8 9 10 11 11 11 10 10 11 9 8 9 9 9 11 11 10 11 11 11 11 11 11 12 14 14 12 8 8 8 8 7 7 6 6
8 11 6 5 9 9 10 10 9 9 8 8 8 9 10 9 10 11 11 10 8 7 10 9 10 12 11 10 10 10 10 10 12 13 12 12 12 8 7 8 7 7 7 6 6
9 9 5 5 11 11 10 10 9 9 9 9 9 8 8 9 11 9 9 8 8 8 10 8 11 13 11 11 10 11 10 10 10 11 13 14 12 7 7 7 7 7 7 6 6
8 11 8 7 8 10 11 12 12 9 10 9 10 8 10 10 8 10 10 8 8 8 8 7 10 11 13 12 11 12 11 11 11 13 12 12 11 9 8 8 8 8 8 7 7
9 11 10 12 11 11 11 11 12 13 11 10 11 11 12 12 11 11 10 10 8 8 8 9 12 10 10 9 10 10 11 10 12 11 13 11 11 9 9 10 9 8 8 8 8
10 10 9 11 11 11 12 13 13 13 12 12 13 13 12 13 13 14 12 11 11 10 11 10 12 11 12 10 10 11 10 10 10 10 10 10 11 8 9 9 9 9 9 9 9
7 7 9 12 12 13 12 13 13 12 11 11 12 12 13 12 11 11 11 11 11 12 12 12 13 13 15 11 11 14 11 10 10 9 10 11 10 10 11 11 10 9 9 10 9